[Date Prev][Date Next][Thread Prev][Thread Next] - [Date Index][Thread Index][Author Index]

2 Line ISS Keps 7-13



ISS
1 25544U 98067A   04195.45914075  .00006827  00000-0  61180-4 0  2079
2 25544  51.6304 191.7292 0006028   0.3466 136.1951 15.69670734322446
----
Via the sarex mailing list at AMSAT.ORG courtesy of AMSAT-NA.
To unsubscribe, send "unsubscribe sarex" to Majordomo@amsat.org



AMSAT Top AMSAT Home